Погода Большеречье

Погода Большеречье : погода сейчас, прогноз погоды и архив. Всё, что Вы хотите узнать о погоде Большеречье!

Хотите узнать прогноз погоды Большеречье? Тогда Вам сюда: Погода Большеречье

Поиск расширенной информации на нашем сайте:

Другие новости

Новости СМИ2

Главная страница сайта

Новости сайта

03.07.2017

Напоминаем, что на нашем специализированном сайте Метеоцентр.Азия вы можете получить высокодетализированные автоматические прогнозы погоды по пунктам России, СНГ и мира в авиационном формате (включающие направление и скорость ветра, видимость, явления погоды, количество и форму облачности, нижнюю и верхнюю границу облачности).


Погода Большеречье - сегодня

Время (UTC), дата Ветер
(°,м/с) 
Видим.   Явления Облачность Т
(°С)
Тd
(°С)
f(%) Тe
(°С)
Pmin
(гПа)
dP
(гПа)
Po
(мм)
O2
(г/м3)
Тmin Tmax R s Состояние
почвы
18 20.09.17 210 (ЮЗ) 10 км    10/0 средняя 
[Ac As]
+8.5 +7.6 94 +10  1009.1  -1.8  750  292           
21 20.09.17 270 (З) 10 км    6/0 средняя 
[Ac As]
+10 +9 93 +10  1008.2  -0.9  749  290           
00 21.09.17 300 (СЗ) 10 км    10/4 600 м кучево-дожд., средняя 
[Cb calv|Ac As]
+10.9 +9.3 90 +10  1008.1  749  289           
03 21.09.17 290 (З) 5{10}  20000 м    10/10 300 м 
[Sc]
+9.7 +7.5 86 +8  1009.1  0.9  750  291  +7.6         
06 21.09.17 340 (С) 5{10}  20000 м  в посл. час ливневой дождь  10/10 300 м кучево-дожд. 
[Cb calv]
+8.9 +6.2 83 +7  1010.9  1.8  751  292           
12 21.09.17 320 (СЗ) 20000 м  {ливн. осадки}  9/9 600 м кучево-дожд. 
[Cb calv]
+8.5 +4.6 76 +7  1014.7  1.6  754  294           
15 21.09.17 320 (СЗ) 10 км  {ливн. осадки}  4/1 600 м кучево-дожд., средняя 
[Cb calv|Ac trans]
+6.4 +4.9 90 +5  1016.2  1.4  755  297    +9.9  0.5     
18 21.09.17 310 (СЗ) 10 км  {ливн. осадки}  ясно 
+3.7 +2.4 91 +2  1016.9  -0.7  756  300           
21 21.09.17 310 (СЗ) 10 км    ясно 
+2.1 +0.6 90 +1  1017.9  0.9  756  302           
00 22.09.17 310 (СЗ) 10 км    3/0 средняя 
[Ac trans]
+1.6 +0.2 90 +1  1018.3  0.3  757  303           
03 22.09.17 310 (СЗ) 20000 м    9/3 600 м кучево-дожд., средняя, верхняя 
[Cb calv|Ac As|Ci fib]
+5.3 +1.9 79 +4  1018.5  0.4  757  299  +1.3        влажная 
06 22.09.17 320 (СЗ) 20000 м    9/8 600 м средняя 
[Cu med, cong|Ac trans]
+7.1 +0.9 65 +5  1018.2  -0.3  757  297           
12 22.09.17 350 (С) 4{11}  20000 м  {ливн. осадки}  9/9 600 м кучево-дожд. 
[Cb calv]
+4.5 +0.8 77 +3  1019.5  1.5  758  300           
15 22.09.17 340 (С) 4{10}  10 км  {ливн. осадки}  10/10 600 м кучево-дожд. 
[Cb calv]
+2.5 -3.6 64 1021.3  1.7  759  303    +8.1  0.4     
18 22.09.17 340 (С) 5{11}  4000 м  слаб. ливневой снег  10/10 600 м кучево-дожд. 
[Cb calv]
+0.7 -3.9 71 -2  1021.8  0.5  759  306           
00 23.09.17 330 (СЗ) 4000 м  слаб. ливневой снег  10/10 600 м кучево-дожд. 
[Cb calv]
-0.6 -3.7 80 -3  1022.8  0.7  760  307           
03 23.09.17 330 (СЗ) 20000 м  {ливн. осадки}  10/10 600 м 
[Cu Sc]
+0.5 -5.3 65 -2  1023  0.3  760  306  -0.8    0.0    влажная 
06 23.09.17 340 (С) 5{11}  20000 м  в посл. час ливневой снег  10/10 600 м кучево-дожд. 
[Cb calv]
+1.6 -5.3 60 -1  1023.2  0.1  760  305           
09 23.09.17 320 (СЗ) 6-10{11}  20000 м  {ливн. осадки}  10/10 600 м кучево-дожд. 
[Cb calv]
+2.2 -5.2 58 -1  1023.8  0.7  761  305           
12 23.09.17 330 (СЗ) 6-10{12}  20000 м  {ливн. осадки}  10/10 600 м кучево-дожд. 
[Cb calv]
+2.5 -5.2 57 1024.7  0.9  761  305           
15 23.09.17 350 (С) 4{12}  10 км  в посл. час ливневой снег  10/10 600 м кучево-дожд. 
[Cb calv]
+1.2 -5.1 63 -1  1026.7  1.9  763  307    +2.6  0.0     
18 23.09.17 320 (СЗ) 10 км  {ливн. осадки}  10/4 600 м кучево-дожд., средняя 
[Cb calv|Ac As]
+0.8 -4.8 66 -2  1027.2  0.5  763  307           
21 23.09.17 330 (СЗ) 10 км    10/10 600 м кучево-дожд. 
[Cb calv]
+0.8 -4.4 68 -2  1028.2  0.9  764  307           
00 24.09.17 330 (СЗ) 4000 м  слаб. ливневой снег  9/6 600 м кучево-дожд., средняя 
[Cb calv|Ac trans]
+0.6 -4 71 -1  1029.3  1.1  765  308           
03 24.09.17 330 (СЗ) 4000 м  слаб. ливневой снег  10/10 300 м кучево-дожд. 
[Cb calv]
-0.3 -1.6 91 -3  1030.9  1.5  766  309  -0.4    0.2  <0.5  равномерный
сухой снег
100% 
Время (UTC), дата Ветер
(°,м/с) 
Видим.   Явления Облачность Т
(°С)
Тd
(°С)
f(%) Тe
(°С)
Pmin
(гПа)
dP
(гПа)
Po
(мм)
O2
(г/м3)
Тmin Tmax R s Состояние
почвы

Для получения пояснительной информации подведите курсор к названию столбца.

ПОГОДА Большеречье - архив

Всё, что Вы хотите узнать о погоде Большеречье - удобно и подробно!

Выберите нужную дату (начиная с 1 января 2015* года) и нажмите кнопку "Найти".
Будут отображены архивные сводки погоды по пункту Большеречье, начиная с указанной даты.


Отображать данные в формате CSV (для использования в таблицах Excel)


Внимание! Наш архив погоды предназначен исключительно для личного некоммерческого использования в познавательных целях. Если Вам необходимы официальные справки о состоянии погоды (для производственных, юридических, коммерческих и т.п. целей), обращайтесь в органы Росгидромета.

*Примечание: данная дата относится к архиву по метеостанциям СССР (Россия, СНГ, Балтия).
Архив по метеостанциям Зарубежной Европы и Азии (кроме Китая) хранится 10 дней, по другим регионам земного шара (Китай, Африка, Америка, Австралия, Океания) - 1 день.

Большеречье - район местоположения метеостанции


Название, широта, долгота, высота метеостанции:
Большеречье 56.1°ш. 74.6°д. 77 м над ур. моря [Российская Федерация]

Дополнительная информация

В oтличие oт бoльшинства пoгoдных сайтoв мы публикуем пoдрoбную метеoинфoрмацию в детальнoм прoфессиoнальнoм фoрмате.

Характеристики температуры и влажнoсти вoздуха измеряются на высoте 2 м в тени вдали oт зданий и деревьев.
Скoрoсть ветра измеряется на высoте 10 м (на урoвне рoста челoвека скoрoсть ветра ниже в 1.5-2 раза). Если метеoстанция нахoдится в гoрoде или в лесу, тo скoрoсть ветра занижена на 2-4 м/с пo сравнению с oткрытым местoм. Скoрoсть ветра над акватoриями крупных рек и oзёр, а также на вершинах хoлмoв на 2-5 м/с выше, чем в oбычных услoвиях.
Атмoсфернoе давление в разных тoчках местнoсти мoжет значительнo oтличаться oт давления на метеoстанции, в зависимoсти oт услoвий рельефа (при пoдъёме на 10 м давление пoнижается примернo на 1 мм рт.ст.).